User: anonymous   Login
Location: Newark
(18.8198°N, 82.1672°E)
Time: 22:57:54
(UTC+00:00)
Language:

KKS-1 - Orbit

View from above orbital plane
View from above orbital plane
View from above satellite
View from above satellite

Ground track
Ground track

The orbit data is extracted from the following two-line orbital elements,

1 33499U 09002H   19289.84529684  .00000096  00000-0  22209-4 0  9998
2 33499  98.3408 132.3431 0009084 176.4133 183.7142 14.75469726576943
Epoch (UTC): 16 October 2019 20:17:13
Eccentricity: 0.0009084
inclination: 98.3408°
perigee height: 637 km
apogee height: 650 km
right ascension of ascending node: 132.3431°
argument of perigee: 176.4133°
revolutions per day: 14.75469726
mean anomaly at epoch: 183.7142°
orbit number at epoch: 57694

The dashed part of the orbit path shows where the satellite is in the earth's shadow,  

DLR